Stations météo

réclame
Mon MeteoGroup
Stornoway, Grande-Bretagne (3026): Température de l'air & dewpoint: 22.10.2020 13:00:00 - 28.10.2020 13:00:00 (GMT)Stornoway, Grande-Bretagne (3026): Température de l'air -20cm & Température de l'air -100cm: 22.10.2020 13:00:00 - 28.10.2020 13:00:00 (GMT)Stornoway, Grande-Bretagne (3026): Vitesse du vent & gusts: 22.10.2020 13:00:00 - 28.10.2020 13:00:00 (GMT)Stornoway, Grande-Bretagne (3026): Direction du vent: 22.10.2020 13:00:00 - 28.10.2020 13:00:00 (GMT)Stornoway, Grande-Bretagne (3026): reduced air pressure: 22.10.2020 13:00:00 - 28.10.2020 13:00:00 (GMT)Stornoway, Grande-Bretagne (3026): visibility: 22.10.2020 13:00:00 - 28.10.2020 13:00:00 (GMT)Stornoway, Grande-Bretagne (3026): Ensoleillement: 22.10.2020 13:00:00 - 28.10.2020 13:00:00 (GMT)Stornoway, Grande-Bretagne (3026): Quantités de précipitations: 22.10.2020 13:00:00 - 28.10.2020 13:00:00 (GMT)
Date & Time tt [°C] td [°C] tt -20cm [°C] tt -100cm [°C] ff [km/h] ff [knt] fx [km/h] fx [knt] dd ppp [hPa] vv [km] sd [min] rr [mm]
28.10.2020 13:00:00 10,1 7,8 - - 24 13 - - SSW 983,4 30 0 0,2
28.10.2020 12:00:00 9,3 7,2 - - 26 14 - - SW 983,2 23 0 0,0
28.10.2020 11:00:00 9,0 6,5 - - 21 11 - - SSW 983,0 60 0 0,0
28.10.2020 10:00:00 8,8 6,9 - - 18 10 - - SSW 982,6 4,1 6 0,0
28.10.2020 09:00:00 7,6 6,2 9,0 10,2 21 11 - - SW 982,1 27 0 0,0
28.10.2020 08:00:00 8,5 6,8 - - 18 10 - - SSW 981,6 23 0 0,0
28.10.2020 07:00:00 8,2 6,6 - - 22 12 - - SSW 981,0 35 0 0,2
28.10.2020 06:00:00 7,6 6,1 - - 16 9 - - SW 981,0 50 0 0,6
28.10.2020 05:00:00 8,4 6,7 - - 18 10 - - SSW 980,9 30 0 0,0
28.10.2020 04:00:00 8,8 6,9 - - 24 13 - - S 980,8 35 0 0,0
28.10.2020 03:00:00 8,6 7,0 - - 24 13 - - S 981,2 30 0 0,2
28.10.2020 02:00:00 8,3 6,7 - - 18 10 - - SSW 981,5 2,9 0 0,4
28.10.2020 01:00:00 7,3 5,2 - - 15 8 - - SSW 981,6 30 0 0,0
28.10.2020 00:00:00 7,1 5,3 - - 5 3 - - SW 981,7 24 - 0,0
27.10.2020 23:00:00 7,3 5,3 - - 11 6 - - SW 981,6 24 0 0,0
27.10.2020 22:00:00 7,4 5,3 - - 13 7 - - SW 981,9 25 0 0,0
27.10.2020 21:00:00 6,9 5,7 - - 9 5 - - SW 982,0 29 0 0,0
27.10.2020 20:00:00 7,2 6,2 - - 9 5 - - SSW 982,0 35 0 0,2
27.10.2020 19:00:00 7,5 6,4 - - 13 7 - - WSW 981,9 26 0 0,4
27.10.2020 18:00:00 7,8 6,8 - - 13 7 - - W 981,3 20 0 1,0
27.10.2020 17:00:00 9,0 8,2 - - 13 7 - - ENE 980,2 5 0 0,4
27.10.2020 16:00:00 8,4 7,3 - - 16 9 - - SE 980,9 12 0 1,0
27.10.2020 15:00:00 8,1 6,7 - - 11 6 - - ESE 981,8 10 0 0,4
27.10.2020 14:00:00 9,9 6,1 - - 16 9 - - ESE 982,1 75 0 0,0
27.10.2020 13:00:00 10,0 7,0 - - 18 10 - - SE 983,2 75 0 0,0
27.10.2020 12:00:00 9,4 6,9 - - 21 11 - - SE 984,2 75 0 0,0
27.10.2020 11:00:00 9,1 6,8 - - 21 11 - - ESE 984,9 75 0 0,0
27.10.2020 10:00:00 9,3 6,6 - - 22 12 - - SSE 985,8 75 6 0,0
27.10.2020 09:00:00 9,0 6,6 9,2 10,2 21 11 - - SSE 986,5 75 0 0,0
27.10.2020 08:00:00 7,6 6,5 - - 13 7 - - SE 987,4 75 0 0,0
27.10.2020 07:00:00 3,7 3,3 - - 4 2 - - N 988,2 15 0 0,0
27.10.2020 06:00:00 5,4 5,1 - - 8 4 - - NE 988,5 15 0 0,0
27.10.2020 05:00:00 4,7 4,3 - - 5 3 - - W 989,6 40 0 0,0
27.10.2020 04:00:00 4,9 4,4 - - 5 3 - - WNW 989,9 40 0 0,0
27.10.2020 03:00:00 5,0 4,5 - - 5 3 - - NW 990,5 40 0 0,0
27.10.2020 02:00:00 6,2 5,5 - - 9 5 - - WNW 991,1 40 0 0,2
27.10.2020 01:00:00 6,9 6,4 - - 9 5 - - NW 991,7 2,9 0 0,0
27.10.2020 00:00:00 6,7 6,0 - - 11 6 - - NW 992,1 30 - 0,0
26.10.2020 23:00:00 7,2 6,2 - - 15 8 - - NNW 992,3 16 0 0,0
26.10.2020 22:00:00 7,9 6,5 - - 21 11 - - N 992,3 26 0 0,0
26.10.2020 21:00:00 8,4 6,9 - - 24 13 - - N 992,2 21 0 0,0
26.10.2020 20:00:00 8,3 7,1 - - 28 15 - - N 992,2 5 0 0,0
26.10.2020 19:00:00 8,6 7,2 - - 24 13 - - N 991,8 22 0 0,2
26.10.2020 18:00:00 8,7 7,7 - - 29 16 - - N 991,1 24 0 0,4
26.10.2020 17:00:00 9,0 7,7 - - 24 13 - - N 990,2 3,3 0 0,2
26.10.2020 16:00:00 9,4 8,0 - - 26 14 - - N 989,5 30 0 0,0
26.10.2020 15:00:00 9,7 8,4 - - 26 14 - - NNW 988,9 28 0 0,0
26.10.2020 14:00:00 10,0 9,0 - - 29 16 - - N 988,1 7 12 0,2
26.10.2020 13:00:00 9,7 8,5 - - 31 17 - - N 987,3 13 18 0,0
26.10.2020 12:00:00 10,4 8,9 - - 22 12 - - NNW 986,4 6 18 0,0
26.10.2020 11:00:00 9,5 8,5 - - 15 8 - - NNW 985,7 55 6 1,4
26.10.2020 10:00:00 10,3 8,7 - - 24 13 - - NNW 984,7 6 54 0,2
26.10.2020 09:00:00 8,7 8,2 9,2 10,4 11 6 - - NNW 983,7 24 6 0,0
26.10.2020 08:00:00 7,9 7,3 - - 21 11 - - N 982,5 30 0 0,0
26.10.2020 07:00:00 7,9 7,2 - - 22 12 - - N 981,0 45 0 0,0
26.10.2020 06:00:00 8,5 7,9 - - 21 11 - - NNW 979,5 45 0 0,0
26.10.2020 05:00:00 7,6 7,2 - - 18 10 - - NW 978,3 50 0 0,0
26.10.2020 04:00:00 7,6 7,1 - - 16 9 - - NW 977,3 30 0 0,0
26.10.2020 03:00:00 7,8 6,9 - - 8 4 - - WSW 976,6 28 0 0,0
26.10.2020 02:00:00 9,5 8,5 - - 28 15 46 25 SSE 976,5 17 0 0,2
26.10.2020 01:00:00 9,4 8,4 - - 31 17 - - SSE 976,4 6 0 3,0
26.10.2020 00:00:00 9,6 8,7 - - 15 8 - - S 976,7 6 - 2,8
25.10.2020 23:00:00 8,9 7,2 - - 26 14 - - SSW 976,4 30 0 1,0
25.10.2020 22:00:00 9,6 7,8 - - 24 13 - - SSW 975,8 30 0 0,2
25.10.2020 21:00:00 9,7 8,1 - - 18 10 - - SSW 975,6 15 0 0,2
25.10.2020 20:00:00 9,7 8,1 - - 28 15 55 30 S 975,0 28 0 1,2
25.10.2020 19:00:00 10,0 8,7 - - 39 21 57 31 S 974,3 14 0 1,2
25.10.2020 18:00:00 10,0 8,3 - - 34 18 72 39 S 974,1 18 0 0,4
25.10.2020 17:00:00 9,9 8,1 - - 41 22 59 32 S 973,9 12 0 1,0
25.10.2020 16:00:00 10,2 8,1 - - 39 21 63 34 S 973,7 11 0 0,4
25.10.2020 15:00:00 10,4 8,5 - - 34 18 67 36 S 973,8 17 0 1,2
25.10.2020 14:00:00 9,4 7,4 - - 41 22 59 32 S 974,0 14 0 0,6
25.10.2020 13:00:00 8,7 7,3 - - 41 22 63 34 S 974,2 5 0 1,4
25.10.2020 12:00:00 9,0 7,6 - - 39 21 67 36 S 974,6 6 0 1,6
25.10.2020 11:00:00 9,3 7,3 - - 41 22 59 32 SSE 974,9 11 0 0,2
25.10.2020 10:00:00 9,4 6,1 - - 39 21 59 32 S 975,2 35 0 0,0
25.10.2020 09:00:00 9,4 6,0 9,2 10,5 44 24 70 38 S 975,3 35 0 0,2
25.10.2020 08:00:00 8,7 6,3 - - 39 21 67 36 S 975,0 35 0 0,4
25.10.2020 07:00:00 8,6 5,4 - - 41 22 68 37 S 975,2 40 0 0,0
25.10.2020 06:00:00 8,4 5,5 - - 41 22 55 30 S 975,1 40 0 0,0
25.10.2020 05:00:00 8,2 5,9 - - 41 22 61 33 S 975,2 25 0 1,0
25.10.2020 04:00:00 8,8 6,3 - - 41 22 61 33 S 975,3 35 0 0,2
25.10.2020 03:00:00 9,1 5,6 - - 41 22 61 33 S 975,8 35 0 0,2
25.10.2020 02:00:00 8,0 5,4 - - 39 21 68 37 SSW 976,1 1,1 0 0,4
25.10.2020 01:00:00 9,0 6,2 - - 48 26 68 37 S 976,1 29 0 1,2
25.10.2020 00:00:00 - - - - - - - - - - - - -
24.10.2020 23:00:00 8,4 6,0 - - 46 25 81 44 S 977,0 30 0 0,8
24.10.2020 22:00:00 8,9 5,4 - - 48 26 83 45 S 977,2 35 0 0,0
24.10.2020 21:00:00 9,4 5,5 - - 52 28 80 43 S 976,9 25 0 0,0
24.10.2020 20:00:00 9,2 5,2 - - 50 27 68 37 S 977,4 27 0 1,2
24.10.2020 19:00:00 7,4 5,3 - - 41 22 67 36 S 978,2 10 0 4,0
24.10.2020 18:00:00 9,1 4,8 - - 44 24 68 37 S 978,7 27 0 0,0
24.10.2020 17:00:00 9,2 5,5 - - 46 25 70 38 SSW 978,7 24 0 0,2
24.10.2020 16:00:00 6,9 5,1 - - 48 26 89 48 SW 979,4 24 18 1,0
24.10.2020 15:00:00 9,5 5,1 - - 41 22 67 36 SSW 979,1 22 24 0,2
24.10.2020 14:00:00 10,3 5,4 - - 42 23 72 39 SSW 979,3 21 36 0,0
24.10.2020 13:00:00 8,7 5,9 - - 46 25 76 41 SSW 979,3 29 42 0,4
24.10.2020 12:00:00 10,0 5,1 - - 46 25 68 37 SSW 979,3 24 30 0,0
24.10.2020 11:00:00 10,1 4,2 - - 48 26 72 39 SSW 979,0 26 48 0,0
24.10.2020 10:00:00 10,1 4,9 - - 44 24 67 36 SSW 978,5 19 42 0,0
24.10.2020 09:00:00 9,6 5,5 9,5 10,7 41 22 61 33 SSW 978,3 19 6 0,0
24.10.2020 08:00:00 10,2 6,2 - - 34 18 61 33 SSW 978,3 22 0 0,0
24.10.2020 07:00:00 9,8 7,0 - - 37 20 57 31 S 978,4 22 0 0,2
24.10.2020 06:00:00 7,5 5,9 - - 35 19 94 51 SSW 978,3 16 0 4,6
24.10.2020 05:00:00 10,1 8,8 - - 59 32 83 45 S 977,7 3,1 0 2,2
24.10.2020 04:00:00 8,9 7,2 - - 41 22 65 35 SSE 980,2 3,3 0 3,0
24.10.2020 03:00:00 8,0 6,4 - - 44 24 83 45 SSE 982,8 3,6 0 3,4
24.10.2020 02:00:00 8,4 6,2 - - 54 29 78 42 S 985,2 4,4 0 0,8
24.10.2020 01:00:00 9,4 5,5 - - 48 26 68 37 S 987,3 25 0 0,2
24.10.2020 00:00:00 9,4 6,4 - - 41 22 59 32 S 989,7 24 - 0,0
23.10.2020 23:00:00 9,4 5,1 - - 39 21 59 32 S 991,7 35 0 0,0
23.10.2020 22:00:00 9,2 5,9 - - 29 16 - - S 992,7 30 0 0,0
23.10.2020 21:00:00 8,5 5,5 - - 18 10 - - SSW 993,7 30 0 0,0
23.10.2020 20:00:00 7,5 5,2 - - 18 10 - - SSW 994,5 45 0 0,0
23.10.2020 19:00:00 5,1 3,5 - - 8 4 - - SW 995,6 45 0 0,0
23.10.2020 18:00:00 5,3 3,6 - - 13 7 - - SW 995,9 65 0 0,0
23.10.2020 17:00:00 6,3 3,8 - - 16 9 - - SW 996,2 75 0 0,2
23.10.2020 16:00:00 7,7 4,7 - - 15 8 - - SSW 995,6 75 6 0,2
23.10.2020 15:00:00 9,1 5,8 - - 16 9 - - WSW 995,7 60 24 0,0
23.10.2020 14:00:00 10,8 6,2 - - 18 10 - - S 995,5 35 30 0,0
23.10.2020 13:00:00 10,3 4,8 - - 26 14 - - WSW 995,2 45 48 0,0
23.10.2020 12:00:00 10,3 6,8 - - 21 11 - - SW 994,9 40 42 0,0
23.10.2020 11:00:00 8,9 6,7 - - 15 8 - - SSW 994,9 75 6 0,2
23.10.2020 10:00:00 8,2 6,1 - - 26 14 - - SW 994,9 24 0 0,4
23.10.2020 09:00:00 8,7 6,1 9,7 10,7 22 12 - - SSW 994,3 12 0 0,0
23.10.2020 08:00:00 8,4 6,5 - - 15 8 - - SSW 994,1 35 0 0,0
23.10.2020 07:00:00 7,3 6,0 - - 11 6 - - SSW 993,9 65 0 1,6
23.10.2020 06:00:00 8,7 5,9 - - 21 11 - - SSW 993,7 25 0 0,0
23.10.2020 05:00:00 8,5 6,4 - - 37 20 57 31 SSW 993,5 24 0 0,8
23.10.2020 04:00:00 9,3 7,8 - - 39 21 55 30 S 993,9 13 0 0,2
23.10.2020 03:00:00 9,3 7,2 - - 37 20 54 29 S 994,7 22 0 0,2
23.10.2020 02:00:00 9,0 7,0 - - 37 20 55 30 S 995,8 11 0 0,2
23.10.2020 01:00:00 9,2 6,9 - - 37 20 54 29 S 996,8 24 0 0,0
23.10.2020 00:00:00 8,9 6,4 - - 31 17 54 29 S 997,5 45 - 0,0
22.10.2020 23:00:00 9,7 4,6 - - 34 18 48 26 S 998,4 65 0 0,0
22.10.2020 22:00:00 9,4 4,4 - - 31 17 46 25 S 999,2 70 0 0,0
22.10.2020 21:00:00 9,2 3,8 - - 26 14 - - S 1000,0 75 0 0,0
22.10.2020 20:00:00 8,9 3,5 - - 18 10 - - SSW 1000,3 75 0 0,0
22.10.2020 19:00:00 8,6 4,0 - - 13 7 - - SSE 1000,8 75 0 0,0
22.10.2020 18:00:00 7,9 4,4 - - 8 4 - - S 1001,4 75 0 0,0
22.10.2020 17:00:00 7,8 4,3 - - 5 3 - - ESE 1001,6 60 0 0,0
22.10.2020 16:00:00 8,1 3,9 - - 5 3 - - E 1001,4 75 0 0,0
22.10.2020 15:00:00 9,1 3,5 - - 4 2 - - NNE 1002,0 70 0 0,0
22.10.2020 14:00:00 8,8 5,4 - - 15 8 - - E 1002,0 75 0 0,0
22.10.2020 13:00:00 8,7 3,6 - - 11 6 - - NNE 1002,1 55 24 0,0

tt = Température de l'air
td = dewpoint
tt -20cm = Température de l'air -20cm
tt -100cm = Température de l'air -100cm
ff = Vitesse du vent
fx = gusts
dd = Direction du vent
ppp = reduced air pressure
vv = visibility
sd = Ensoleillement
rr = Quantités de précipitations

stations d'obs. à proximité